Time,TemperatureF,DewpointF,PressureIn,WindDirection,WindDirectionDegrees,WindSpeedMPH,WindSpeedGustMPH,Humidity,HourlyPrecipIn,Conditions,Clouds,dailyrainin,SoftwareType,DateUTC
2013-01-01 00:14:00,30.0,29.0,30.49,NW,316,0.0,0.0,97,0.00,,,0.00,weatherlink.com 1.10,2013-01-01 08:14:00,
2013-01-01 00:29:00,30.0,29.0,30.50,NW,316,0.0,1.0,97,0.00,,,0.00,weatherlink.com 1.10,2013-01-01 08:29:00,
2013-01-01 00:43:00,30.3,30.0,30.50,NW,316,0.0,1.0,97,0.00,,,0.00,weatherlink.com 1.10,2013-01-01 08:43:00,
2013-01-01 00:59:00,30.0,29.0,30.50,NW,316,0.0,1.0,97,0.00,,,0.00,weatherlink.com 1.10,2013-01-01 08:59:00,
2013-01-01 01:14:00,30.2,30.0,30.51,NW,315,0.0,1.0,97,0.00,,,0.00,weatherlink.com 1.10,2013-01-01 09:14:00,
2013-01-01 01:29:00,30.0,29.0,30.50,NNW,328,0.0,1.0,96,0.00,,,0.00,weatherlink.com 1.10,2013-01-01 09:29:00,
2013-01-01 01:44:00,29.7,29.0,30.50,North,349,0.0,1.0,96,0.00,,,0.00,weatherlink.com 1.10,2013-01-01 09:44:00,
2013-01-01 01:59:00,29.3,28.0,30.51,NNW,345,0.0,1.0,96,0.00,,,0.00,weatherlink.com 1.10,2013-01-01 09:59:00,
2013-01-01 02:14:00,29.0,28.0,30.51,NNE,31,0.0,1.0,96,0.00,,,0.00,weatherlink.com 1.10,2013-01-01 10:14:00,
2013-01-01 02:29:00,28.5,28.0,30.51,NNE,32,0.0,0.0,96,0.00,,,0.00,weatherlink.com 1.10,2013-01-01 10:29:00,
2013-01-01 02:44:00,28.1,27.0,30.53,NNE,30,0.0,0.0,96,0.00,,,0.00,weatherlink.com 1.10,2013-01-01 10:44:00,
2013-01-01 02:59:00,27.8,27.0,30.52,NNE,30,0.0,0.0,96,0.00,,,0.00,weatherlink.com 1.10,2013-01-01 10:59:00,
2013-01-01 03:14:00,27.6,27.0,30.52,NNE,31,0.0,0.0,96,0.00,,,0.00,weatherlink.com 1.10,2013-01-01 11:14:00,
2013-01-01 03:29:00,27.4,26.0,30.52,NNE,31,0.0,0.0,96,0.00,,,0.00,weatherlink.com 1.10,2013-01-01 11:29:00,
2013-01-01 03:44:00,27.6,27.0,30.52,NNE,32,0.0,1.0,97,0.00,,,0.00,weatherlink.com 1.10,2013-01-01 11:44:00,
2013-01-01 03:59:00,27.7,27.0,30.52,NNE,32,0.0,0.0,97,0.00,,,0.00,weatherlink.com 1.10,2013-01-01 11:59:00,
2013-01-01 04:14:00,27.3,26.0,30.52,NNE,32,0.0,0.0,96,0.00,,,0.00,weatherlink.com 1.10,2013-01-01 12:14:00,
2013-01-01 04:29:00,27.3,27.0,30.51,NNE,32,0.0,0.0,97,0.00,,,0.00,weatherlink.com 1.10,2013-01-01 12:29:00,
2013-01-01 04:44:00,26.9,26.0,30.50,NNE,32,0.0,0.0,96,0.00,,,0.00,weatherlink.com 1.10,2013-01-01 12:44:00,
2013-01-01 04:59:00,26.9,26.0,30.50,NNE,32,0.0,0.0,97,0.00,,,0.00,weatherlink.com 1.10,2013-01-01 12:59:00,
2013-01-01 05:14:00,26.5,26.0,30.51,NNE,31,0.0,0.0,96,0.00,,,0.00,weatherlink.com 1.10,2013-01-01 13:14:00,
2013-01-01 05:29:00,26.3,26.0,30.50,NNE,32,0.0,0.0,97,0.00,,,0.00,weatherlink.com 1.10,2013-01-01 13:29:00,
2013-01-01 05:44:00,25.9,25.0,30.50,NNE,32,0.0,0.0,97,0.00,,,0.00,weatherlink.com 1.10,2013-01-01 13:44:00,
2013-01-01 05:59:00,26.1,25.0,30.50,NNE,31,0.0,0.0,97,0.00,,,0.00,weatherlink.com 1.10,2013-01-01 13:59:00,
2013-01-01 06:14:00,26.3,26.0,30.49,NNE,32,0.0,0.0,97,0.00,,,0.00,weatherlink.com 1.10,2013-01-01 14:14:00,
2013-01-01 06:29:00,25.7,25.0,30.50,NNE,32,0.0,0.0,97,0.00,,,0.00,weatherlink.com 1.10,2013-01-01 14:29:00,
2013-01-01 06:44:00,25.5,25.0,30.51,NNE,32,0.0,0.0,97,0.00,,,0.00,weatherlink.com 1.10,2013-01-01 14:44:00,
2013-01-01 06:59:00,25.9,25.0,30.51,NNE,32,0.0,0.0,97,0.00,,,0.00,weatherlink.com 1.10,2013-01-01 14:59:00,
2013-01-01 07:14:00,26.6,26.0,30.52,NNE,23,1.0,1.0,97,0.00,,,0.00,weatherlink.com 1.10,2013-01-01 15:14:00,
2013-01-01 07:29:00,26.7,26.0,30.52,NNE,23,0.0,1.0,97,0.00,,,0.00,weatherlink.com 1.10,2013-01-01 15:29:00,
2013-01-01 07:44:00,26.2,25.0,30.52,NNE,23,0.0,0.0,96,0.00,,,0.00,weatherlink.com 1.10,2013-01-01 15:44:00,
2013-01-01 07:59:00,26.3,26.0,30.53,NNE,23,0.0,0.0,97,0.00,,,0.00,weatherlink.com 1.10,2013-01-01 15:59:00,
2013-01-01 08:14:00,26.5,26.0,30.53,NE,56,1.0,1.0,97,0.00,,,0.00,weatherlink.com 1.10,2013-01-01 16:14:00,
2013-01-01 08:29:00,27.7,27.0,30.53,NE,44,0.0,1.0,97,0.00,,,0.00,weatherlink.com 1.10,2013-01-01 16:29:00,
2013-01-01 08:44:00,29.2,29.0,30.54,NE,44,0.0,1.0,97,0.00,,,0.00,weatherlink.com 1.10,2013-01-01 16:44:00,
2013-01-01 08:59:00,29.5,28.0,30.54,NNE,22,0.0,1.0,94,0.00,,,0.00,weatherlink.com 1.10,2013-01-01 16:59:00,
2013-01-01 09:14:00,30.0,28.0,30.54,NW,316,0.0,2.0,93,0.00,,,0.00,weatherlink.com 1.10,2013-01-01 17:14:00,
2013-01-01 09:29:00,31.2,29.0,30.54,NNE,25,1.0,3.0,91,0.00,,,0.00,weatherlink.com 1.10,2013-01-01 17:29:00,
2013-01-01 09:45:00,31.9,29.0,30.55,NE,43,2.0,2.0,90,0.00,,,0.00,weatherlink.com 1.10,2013-01-01 17:45:00,
2013-01-01 10:00:00,32.6,30.0,30.55,West,276,0.0,2.0,89,0.00,,,0.00,weatherlink.com 1.10,2013-01-01 18:00:00,
2013-01-01 10:15:00,33.2,29.0,30.56,NW,314,2.0,4.0,85,0.00,,,0.00,weatherlink.com 1.10,2013-01-01 18:15:00,
2013-01-01 10:30:00,33.9,29.0,30.56,WSW,242,0.0,3.0,83,0.00,,,0.00,weatherlink.com 1.10,2013-01-01 18:30:00,
2013-01-01 10:45:00,34.5,30.0,30.55,NW,304,2.0,5.0,82,0.00,,,0.00,weatherlink.com 1.10,2013-01-01 18:45:00,
2013-01-01 11:00:00,34.9,29.0,30.54,NE,56,3.0,5.0,80,0.00,,,0.00,weatherlink.com 1.10,2013-01-01 19:00:00,
2013-01-01 11:15:00,35.1,30.0,30.53,NE,35,0.0,4.0,80,0.00,,,0.00,weatherlink.com 1.10,2013-01-01 19:15:00,
2013-01-01 11:30:00,35.3,29.0,30.52,ENE,67,1.0,4.0,79,0.00,,,0.00,weatherlink.com 1.10,2013-01-01 19:30:00,
2013-01-01 11:45:00,35.6,29.0,30.52,WNW,298,0.0,5.0,78,0.00,,,0.00,weatherlink.com 1.10,2013-01-01 19:45:00,
2013-01-01 12:00:00,35.9,29.0,30.51,NNE,29,1.0,5.0,77,0.00,,,0.00,weatherlink.com 1.10,2013-01-01 20:00:00,
2013-01-01 12:15:00,36.6,30.0,30.50,West,278,0.0,3.0,77,0.00,,,0.00,weatherlink.com 1.10,2013-01-01 20:15:00,
2013-01-01 12:30:00,37.4,31.0,30.50,NE,43,0.0,4.0,77,0.00,,,0.00,weatherlink.com 1.10,2013-01-01 20:30:00,
2013-01-01 12:45:00,37.6,30.0,30.49,NE,51,0.0,4.0,75,0.00,,,0.00,weatherlink.com 1.10,2013-01-01 20:45:00,
2013-01-01 13:00:00,38.0,31.0,30.48,ENE,57,2.0,5.0,76,0.00,,,0.00,weatherlink.com 1.10,2013-01-01 21:00:00,
2013-01-01 13:30:00,37.8,31.0,30.47,NW,315,0.0,6.0,75,0.00,,,0.00,weatherlink.com 1.10,2013-01-01 21:30:00,
2013-01-01 13:45:00,38.1,31.0,30.46,ENE,68,1.0,4.0,75,0.00,,,0.00,weatherlink.com 1.10,2013-01-01 21:45:00,
2013-01-01 14:00:00,38.4,31.0,30.46,NE,53,1.0,5.0,74,0.00,,,0.00,weatherlink.com 1.10,2013-01-01 22:00:00,
2013-01-01 14:30:00,39.2,31.0,30.47,NNW,341,2.0,6.0,73,0.00,,,0.00,weatherlink.com 1.10,2013-01-01 22:30:00,
2013-01-01 14:45:00,39.3,31.0,30.47,NW,304,0.0,5.0,73,0.00,,,0.00,weatherlink.com 1.10,2013-01-01 22:45:00,
2013-01-01 15:00:00,39.3,31.0,30.47,NNW,332,1.0,6.0,73,0.00,,,0.00,weatherlink.com 1.10,2013-01-01 23:00:00,
2013-01-01 15:15:00,38.9,31.0,30.47,North,354,1.0,6.0,73,0.00,,,0.00,weatherlink.com 1.10,2013-01-01 23:15:00,
2013-01-01 15:30:00,38.6,31.0,30.47,NW,315,0.0,5.0,75,0.00,,,0.00,weatherlink.com 1.10,2013-01-01 23:30:00,
2013-01-01 15:45:00,38.5,31.0,30.47,NNW,338,1.0,4.0,75,0.00,,,0.00,weatherlink.com 1.10,2013-01-01 23:45:00,
2013-01-01 16:00:00,37.9,31.0,30.47,NNE,16,0.0,1.0,76,0.00,,,0.00,weatherlink.com 1.10,2013-01-02 00:00:00,
2013-01-01 16:15:00,37.5,31.0,30.47,NW,323,0.0,1.0,76,0.00,,,0.00,weatherlink.com 1.10,2013-01-02 00:15:00,
2013-01-01 16:45:00,35.9,30.0,30.46,NNW,339,0.0,1.0,79,0.00,,,0.00,weatherlink.com 1.10,2013-01-02 00:45:00,
2013-01-01 17:00:00,34.8,30.0,30.47,NNW,347,0.0,1.0,82,0.00,,,0.00,weatherlink.com 1.10,2013-01-02 01:00:00,
2013-01-01 17:18:00,33.8,30.0,30.46,NNW,347,0.0,0.0,84,0.00,,,0.00,weatherlink.com 1.10,2013-01-02 01:18:00,
2013-01-01 17:30:00,33.1,29.0,30.46,North,349,0.0,0.0,85,0.00,,,0.00,weatherlink.com 1.10,2013-01-02 01:30:00,
2013-01-01 17:45:00,32.2,29.0,30.46,North,349,0.0,0.0,88,0.00,,,0.00,weatherlink.com 1.10,2013-01-02 01:45:00,
2013-01-01 18:00:00,32.0,29.0,30.46,North,349,0.0,0.0,88,0.00,,,0.00,weatherlink.com 1.10,2013-01-02 02:00:00,
2013-01-01 18:15:00,31.4,29.0,30.46,North,349,0.0,0.0,89,0.00,,,0.00,weatherlink.com 1.10,2013-01-02 02:15:00,
2013-01-01 18:30:00,31.6,29.0,30.46,NW,326,0.0,1.0,89,0.00,,,0.00,weatherlink.com 1.10,2013-01-02 02:30:00,
2013-01-01 18:45:00,31.5,29.0,30.46,NW,326,0.0,0.0,89,0.00,,,0.00,weatherlink.com 1.10,2013-01-02 02:45:00,
2013-01-01 19:00:00,31.8,29.0,30.46,NNW,336,0.0,1.0,88,0.00,,,0.00,weatherlink.com 1.10,2013-01-02 03:00:00,
2013-01-01 19:15:00,31.6,29.0,30.46,NNW,333,0.0,1.0,88,0.00,,,0.00,weatherlink.com 1.10,2013-01-02 03:15:00,
2013-01-01 19:30:00,32.1,28.0,30.46,NNE,13,0.0,1.0,86,0.00,,,0.00,weatherlink.com 1.10,2013-01-02 03:30:00,
2013-01-01 19:45:00,32.0,28.0,30.46,NNE,14,0.0,1.0,86,0.00,,,0.00,weatherlink.com 1.10,2013-01-02 03:45:00,
2013-01-01 20:00:00,31.4,28.0,30.46,NNE,15,0.0,1.0,88,0.00,,,0.00,weatherlink.com 1.10,2013-01-02 04:00:00,
2013-01-01 20:15:00,30.1,27.0,30.46,NNE,15,0.0,0.0,89,0.00,,,0.00,weatherlink.com 1.10,2013-01-02 04:15:00,
2013-01-01 20:30:00,30.1,28.0,30.46,NNE,14,0.0,0.0,90,0.00,,,0.00,weatherlink.com 1.10,2013-01-02 04:30:00,
2013-01-01 20:45:00,29.6,27.0,30.46,NNE,15,0.0,0.0,90,0.00,,,0.00,weatherlink.com 1.10,2013-01-02 04:45:00,
2013-01-01 21:16:00,28.4,26.0,30.46,NNE,14,0.0,0.0,91,0.00,,,0.00,weatherlink.com 1.10,2013-01-02 05:16:00,
2013-01-01 21:31:00,27.8,26.0,30.45,NNE,15,0.0,0.0,93,0.00,,,0.00,weatherlink.com 1.10,2013-01-02 05:31:00,
2013-01-01 21:46:00,28.5,26.0,30.45,NNW,343,0.0,1.0,91,0.00,,,0.00,weatherlink.com 1.10,2013-01-02 05:46:00,
2013-01-01 22:01:00,29.1,26.0,30.45,ENE,57,0.0,0.0,89,0.00,,,0.00,weatherlink.com 1.10,2013-01-02 06:01:00,
2013-01-01 22:16:00,28.9,26.0,30.45,ENE,57,0.0,1.0,89,0.00,,,0.00,weatherlink.com 1.10,2013-01-02 06:16:00,
2013-01-01 22:31:00,29.2,26.0,30.44,NE,56,0.0,1.0,89,0.00,,,0.00,weatherlink.com 1.10,2013-01-02 06:31:00,
2013-01-01 22:46:00,28.9,26.0,30.45,ENE,57,0.0,0.0,89,0.00,,,0.00,weatherlink.com 1.10,2013-01-02 06:46:00,
2013-01-01 23:02:00,28.1,26.0,30.45,ENE,57,0.0,0.0,91,0.00,,,0.00,weatherlink.com 1.10,2013-01-02 07:02:00,
2013-01-01 23:16:00,28.0,26.0,30.44,ENE,57,0.0,0.0,92,0.00,,,0.00,weatherlink.com 1.10,2013-01-02 07:16:00,
2013-01-01 23:31:00,27.8,26.0,30.44,NE,56,0.0,0.0,92,0.00,,,0.00,weatherlink.com 1.10,2013-01-02 07:31:00,
2013-01-01 23:46:00,27.7,26.0,30.44,ENE,57,0.0,0.0,92,0.00,,,0.00,weatherlink.com 1.10,2013-01-02 07:46:00,